Wind_Speed
21 20 20 19 18 16 15 14 14 13 13 12 11 11 10 10 9 9 8 8 8 8 8 8 8 8 8 8 8 8 8 8 7 7 7 6 6 6 6 6 7 7 7 7 7 8 8 8 8
23 21 21 20 19 17 15 15 15 15 14 13 12 11 11 10 10 9 9 9 9 9 10 10 9 9 9 9 9 9 9 9 9 9 9 9 8 8 8 8 8 8 8 8 9 9 9 9 10
24 23 22 22 21 18 17 17 17 16 15 14 13 13 12 11 10 10 10 9 9 10 11 11 11 11 11 11 11 11 11 11 11 11 11 10 10 10 10 10 10 10 10 10 11 11 11 11 11
25 24 24 24 22 20 21 19 18 18 17 16 15 14 14 13 12 12 11 11 11 11 12 13 13 13 13 12 12 12 13 13 13 13 13 13 12 12 13 13 13 13 13 13 13 13 13 13 13
25 25 25 25 24 23 23 21 20 19 19 18 17 16 15 14 14 13 13 13 13 12 13 14 14 15 14 14 13 14 14 14 14 15 15 14 14 14 14 14 14 14 14 15 15 15 15 15 15
26 26 27 26 26 25 24 23 22 21 21 20 20 19 17 16 16 15 15 15 14 14 14 14 15 16 16 16 16 15 15 15 15 16 16 16 16 16 16 16 15 16 16 16 17 16 17 17 17
27 28 28 27 28 27 26 25 24 23 23 22 21 21 19 18 18 17 17 17 16 16 16 16 16 17 18 18 18 17 17 17 17 17 18 18 18 18 18 18 18 17 17 18 18 18 19 19 19
29 30 29 29 29 29 28 27 27 26 25 24 23 23 21 20 20 19 19 18 18 18 17 17 17 17 18 19 19 19 19 19 19 19 19 19 19 20 20 20 20 20 20 20 20 20 21 21 21
30 31 30 29 29 30 28 29 28 27 26 26 25 25 23 22 21 21 20 20 19 19 19 18 18 18 18 19 20 21 21 21 21 21 21 20 21 21 22 22 22 22 22 22 22 22 23 23 23
32 32 31 31 31 31 29 29 28 28 28 28 27 26 25 24 23 22 21 21 21 21 21 20 20 20 19 20 20 21 22 22 23 23 23 23 22 23 23 24 24 24 24 24 24 25 25 25 25
33 33 33 33 33 32 31 30 30 30 30 29 28 27 27 27 25 25 24 23 22 22 22 22 22 22 21 21 21 22 23 23 23 24 24 24 24 24 24 25 25 26 26 26 26 27 27 27 27
33 33 34 34 34 34 33 32 32 31 31 30 30 29 29 28 28 27 27 26 25 24 24 24 24 24 23 23 23 23 24 24 24 25 25 26 26 25 25 26 27 28 28 28 29 29 29 29 30
34 34 34 35 35 35 35 35 34 33 32 32 31 30 30 30 29 29 29 29 28 27 26 26 27 26 26 26 26 25 25 26 27 27 27 28 28 28 28 29 29 29 29 30 30 31 31 31 32
33 35 35 35 35 36 36 36 36 34 33 33 33 32 31 31 31 30 30 30 30 29 29 30 29 29 29 29 29 29 28 28 29 30 30 30 31 31 32 32 32 31 32 33 34 34 34 34 34
32 34 36 35 36 36 36 37 36 35 35 34 34 33 33 33 32 32 32 32 32 31 32 32 31 31 32 32 32 32 32 32 31 32 33 33 34 33 33 34 35 35 35 36 36 37 37 37 37
29 31 33 35 35 36 37 37 36 36 36 35 35 35 35 34 34 34 33 33 33 33 33 34 34 34 34 34 34 34 34 35 35 35 35 36 36 37 37 37 38 38 38 38 39 39 40 39 40
26 28 30 33 34 35 37 37 37 37 37 37 36 36 36 36 35 35 35 35 34 33 33 33 34 34 35 35 36 36 36 37 37 37 37 38 39 39 39 39 40 41 41 41 41 42 42 43 43
23 25 27 29 31 33 35 36 36 36 37 38 37 36 37 37 36 36 36 35 35 35 35 35 35 35 34 35 36 36 37 38 38 39 39 40 40 41 41 41 41 42 43 43 43 44 45 46 46
20 22 24 26 28 30 33 35 35 35 36 37 37 36 36 36 36 36 36 36 36 36 36 36 36 36 36 36 36 36 37 38 39 40 40 40 41 42 42 43 43 44 45 46 46 46 48 48 48
19 20 22 23 25 27 29 32 33 34 35 36 36 37 37 37 37 36 36 37 37 37 38 37 37 37 37 38 38 37 38 39 40 41 42 43 43 43 44 45 46 47 47 48 49 49 50 50 51
19 19 20 21 23 25 27 28 30 31 32 33 34 35 36 36 36 36 36 36 36 37 38 38 37 38 38 39 38 39 39 40 41 42 43 45 45 45 46 46 48 48 49 50 50 51 52 53 53
17 18 18 19 21 23 25 27 27 28 30 30 31 32 33 34 35 35 35 36 37 37 37 38 38 38 39 39 40 40 40 41 42 43 44 45 46 46 47 47 48 50 51 52 53 54 54 54 55
13 14 15 16 17 20 22 24 25 26 28 28 29 29 30 31 33 33 34 35 35 37 37 37 38 39 40 40 41 41 42 42 43 44 45 46 48 48 49 50 51 52 52 54 55 56 56 56 57
9 11 12 13 15 16 17 20 21 22 23 24 26 27 28 29 31 32 33 33 34 35 36 38 39 41 42 42 42 42 43 43 44 45 47 47 48 49 51 52 52 53 53 54 55 56 56 57 58
8 9 11 12 14 16 16 18 20 20 20 21 23 25 26 27 29 31 32 33 33 34 36 38 39 39 40 41 42 43 43 43 44 45 46 47 48 49 50 51 52 52 53 53 54 54 55 56 57
10 10 11 13 14 15 15 17 18 19 20 21 21 22 24 26 28 30 31 32 33 34 36 36 37 38 38 39 40 42 43 43 44 45 46 47 48 49 50 51 52 53 53 54 54 55 56 56 57
10 11 12 13 15 16 16 16 17 19 20 21 21 22 24 25 27 29 31 32 33 34 35 36 37 37 39 40 41 42 43 44 45 46 47 48 49 50 50 51 51 52 53 54 55 55 56 56 57
10 10 11 13 14 16 17 17 19 19 20 20 21 23 24 25 26 28 29 30 32 33 34 36 37 38 39 40 42 43 44 46 47 48 48 49 49 49 49 48 49 50 52 53 54 54 54 54 56
10 10 11 13 14 15 16 17 19 20 20 21 22 22 23 24 25 26 27 29 30 32 33 35 37 38 39 40 41 42 44 45 46 47 47 47 47 47 47 48 49 50 51 52 52 52 53 55 56
11 12 12 13 14 16 18 17 18 19 20 20 20 21 23 24 25 25 27 27 29 30 31 33 34 36 37 39 40 40 41 42 43 44 45 46 47 47 48 49 50 51 52 52 53 54 55 56 57
Wind_Direction
223 223 223 223 223 223 224 226 225 226 226 228 229 230 231 230 228 228 226 225 226 225 222 222 223 225 226 228 230 230 230 230 231 234 236 239 242 246 250 248 248 249 251 251 254 258 260 265 268
224 223 225 224 222 223 224 227 227 228 227 228 229 230 231 230 231 232 229 230 231 231 228 228 230 231 232 234 237 239 238 238 240 243 245 247 251 256 258 256 255 257 257 257 260 263 265 268 269
223 224 225 225 223 223 225 227 228 231 230 229 230 231 231 232 232 233 232 232 234 233 233 234 235 237 238 240 243 245 246 245 247 249 249 251 254 257 259 260 262 262 262 262 265 268 270 271 272
226 226 225 225 223 224 229 229 230 232 231 231 232 232 232 233 235 236 236 239 240 239 237 238 239 240 241 244 247 248 249 250 251 252 253 255 257 259 261 262 264 264 264 265 268 271 273 273 274
228 228 227 225 225 226 230 230 232 233 233 232 233 234 234 237 238 237 237 239 240 242 242 242 242 243 245 245 246 248 251 253 253 253 255 257 259 261 263 264 265 266 266 267 268 271 274 275 276
230 230 229 227 228 229 232 233 233 234 235 235 236 237 237 238 241 240 241 242 242 244 246 248 247 246 247 248 248 249 250 253 256 256 257 259 261 262 264 265 266 268 269 270 271 273 274 274 275
233 232 230 229 230 232 232 233 234 236 237 238 239 240 240 241 241 242 245 245 245 246 248 251 252 251 250 250 251 250 251 253 256 258 259 260 261 262 264 265 267 269 270 271 271 273 274 274 275
234 234 231 230 231 235 234 234 236 238 240 241 242 243 243 243 242 242 246 247 247 248 251 253 254 254 253 253 253 253 253 255 256 258 261 262 263 264 265 267 268 269 271 272 272 273 274 275 276
233 234 232 231 231 235 234 235 236 238 240 242 243 244 244 243 244 244 246 248 249 250 251 253 253 255 256 255 256 256 257 257 258 260 261 262 264 265 266 267 268 269 271 272 273 274 275 276 277
234 233 233 233 233 235 234 236 238 239 241 242 242 243 243 244 244 244 247 248 249 251 252 254 254 256 259 260 259 259 260 260 261 262 263 264 265 267 268 269 269 270 271 272 273 275 276 276 276
236 235 234 234 234 235 236 236 238 239 241 241 242 242 242 243 244 246 247 248 251 252 253 254 255 257 259 262 262 261 261 260 261 262 263 265 267 268 269 270 270 270 272 273 273 275 276 277 277
237 236 236 236 236 236 237 238 238 240 241 242 242 242 241 242 244 246 247 249 251 253 255 256 257 259 261 261 262 263 263 262 261 263 264 266 268 269 269 270 271 271 272 273 274 274 275 276 278
236 236 236 237 237 237 237 238 238 239 240 242 244 243 242 243 245 247 249 250 252 253 256 258 260 261 262 263 264 265 265 266 265 265 266 268 268 268 269 270 271 272 272 274 276 276 276 276 277
239 238 238 237 237 238 238 239 239 240 240 243 244 245 245 245 245 248 250 250 252 255 257 258 260 261 262 263 265 266 266 267 268 268 268 269 270 271 271 272 273 273 275 276 277 277 277 278 278
241 240 239 238 237 238 239 240 239 240 242 243 244 246 247 247 248 249 251 253 254 256 258 258 261 261 262 264 265 266 267 269 270 270 270 270 270 271 271 273 274 275 276 277 277 276 277 278 278
241 241 239 236 236 237 239 241 241 242 242 243 244 247 248 249 250 251 253 255 257 258 259 260 263 263 264 266 267 268 269 270 271 271 271 271 271 271 272 274 275 276 276 276 277 276 276 277 278
242 242 242 238 237 239 240 242 244 245 244 244 245 247 248 249 250 251 253 256 258 259 261 263 264 265 266 266 267 269 270 270 271 271 271 271 271 272 273 274 275 276 276 276 276 277 277 277 278
244 244 244 243 241 241 242 244 245 246 248 247 247 247 249 250 251 252 254 256 258 260 262 264 265 267 268 268 268 269 270 270 271 272 272 273 273 273 273 274 274 275 275 276 276 277 278 279 279
245 245 245 246 246 245 244 246 248 248 249 250 250 249 250 251 253 254 255 257 258 260 262 265 266 268 269 269 270 271 271 271 272 273 273 274 275 274 275 275 276 276 277 277 277 278 279 280 280
246 248 247 248 249 248 247 248 249 250 250 251 253 253 253 253 255 256 257 257 259 261 263 264 266 268 269 269 270 271 273 273 273 274 275 275 275 275 275 276 277 277 278 278 279 280 281 281 281
249 252 252 253 251 252 253 252 251 252 254 254 255 255 254 255 256 257 258 260 261 262 264 264 265 268 269 270 271 272 274 276 276 275 276 276 276 277 278 279 279 279 280 280 281 282 282 282 282
253 254 258 259 258 258 257 259 255 255 255 256 256 256 257 257 257 257 259 260 262 263 264 265 266 268 269 270 272 274 275 276 278 278 277 277 276 277 279 280 281 281 282 281 282 282 283 283 283
261 258 259 260 262 263 260 261 260 258 258 259 258 257 259 259 259 260 261 262 263 265 267 268 268 269 270 272 274 275 276 277 279 279 279 279 280 280 280 281 283 283 283 283 283 283 283 283 283
266 261 261 265 267 267 266 266 264 262 264 264 262 262 262 262 262 262 262 263 264 266 269 270 271 273 273 273 275 277 278 278 280 281 282 282 282 282 283 283 284 285 285 284 284 285 284 285 285
267 266 267 270 271 272 272 271 269 268 269 269 267 267 266 266 266 266 266 266 267 268 270 272 274 275 275 276 277 279 281 282 282 283 283 283 283 283 284 284 284 285 285 285 286 286 286 285 286
278 275 273 276 277 275 275 274 273 274 274 273 273 271 271 272 271 271 271 271 270 271 272 274 275 277 277 278 278 279 280 281 282 283 284 284 284 284 285 285 285 285 286 286 286 286 287 287 287
291 285 279 278 277 279 279 278 277 281 281 278 277 276 275 276 277 276 275 274 274 274 274 274 276 277 279 280 280 279 279 280 281 283 283 284 285 285 285 287 287 286 286 286 287 287 287 287 288
294 292 285 280 281 282 283 284 284 283 286 282 280 281 279 279 280 279 278 278 277 276 276 276 277 278 280 281 281 281 280 280 282 283 284 285 285 286 287 287 288 289 289 289 289 289 290 290 290
299 292 292 289 283 285 289 289 288 287 286 285 281 281 281 281 281 280 280 280 280 280 280 279 279 280 280 281 282 283 284 284 284 285 286 286 287 288 288 289 290 291 291 291 290 291 292 292 292
303 295 290 290 291 291 291 294 292 291 290 289 285 284 284 284 283 283 282 283 284 283 283 284 284 283 283 284 285 286 287 288 288 287 287 287 288 289 290 290 290 292 292 292 292 292 293 293 294
Height
5814 5816 5819 5821 5824 5825 5827 5829 5830 5831 5832 5834 5835 5836 5837 5838 5840 5843 5842 5841 5842 5843 5843 5844 5845 5845 5846 5846 5847 5847 5848 5848 5849 5849 5849 5850 5850 5850 5850 5851 5851 5851 5851 5851 5851 5851 5851 5851 5851
5811 5813 5816 5818 5820 5822 5825 5826 5828 5829 5831 5832 5833 5835 5836 5837 5838 5839 5839 5840 5841 5841 5842 5843 5844 5844 5845 5845 5846 5846 5847 5847 5848 5848 5848 5849 5849 5849 5849 5850 5850 5850 5850 5850 5850 5850 5850 5850 5850
5807 5810 5813 5815 5817 5819 5822 5823 5825 5827 5829 5830 5832 5833 5834 5836 5836 5837 5838 5838 5839 5840 5841 5841 5842 5843 5843 5844 5844 5845 5845 5846 5846 5846 5847 5847 5848 5848 5848 5848 5848 5849 5849 5849 5849 5849 5849 5848 5848
5804 5806 5809 5812 5814 5817 5818 5820 5822 5824 5826 5828 5829 5831 5832 5833 5834 5835 5836 5836 5837 5838 5838 5839 5840 5841 5841 5842 5843 5843 5843 5844 5844 5845 5845 5845 5846 5846 5846 5846 5847 5847 5847 5847 5847 5847 5847 5847 5846
5799 5802 5805 5807 5810 5813 5815 5817 5819 5822 5823 5825 5827 5828 5829 5831 5832 5833 5833 5834 5835 5836 5836 5837 5838 5838 5839 5840 5840 5841 5841 5842 5842 5843 5843 5843 5844 5844 5844 5844 5844 5844 5844 5845 5845 5845 5844 5844 5844
5796 5798 5801 5803 5806 5809 5812 5814 5816 5818 5820 5822 5824 5825 5826 5828 5829 5830 5831 5832 5832 5833 5834 5834 5835 5836 5836 5837 5838 5838 5839 5839 5840 5840 5840 5841 5841 5841 5842 5842 5842 5842 5842 5842 5842 5842 5842 5841 5841
5791 5793 5795 5799 5801 5804 5808 5810 5812 5814 5816 5818 5820 5822 5823 5824 5826 5827 5828 5829 5829 5830 5831 5831 5832 5833 5833 5834 5835 5835 5836 5836 5837 5837 5837 5838 5838 5838 5838 5839 5839 5839 5839 5839 5839 5839 5838 5838 5838
5785 5789 5791 5794 5797 5800 5803 5805 5808 5810 5812 5815 5816 5818 5820 5821 5822 5823 5824 5825 5826 5827 5828 5828 5829 5829 5830 5830 5831 5832 5832 5833 5833 5834 5834 5834 5835 5835 5835 5835 5835 5835 5835 5835 5835 5835 5835 5834 5834
5780 5784 5786 5789 5792 5795 5798 5800 5803 5805 5807 5810 5812 5814 5816 5817 5818 5820 5821 5822 5823 5823 5824 5825 5825 5826 5826 5827 5827 5828 5828 5829 5829 5830 5830 5830 5831 5831 5831 5831 5831 5831 5831 5831 5831 5830 5830 5830 5830
5773 5777 5780 5784 5786 5789 5792 5795 5798 5800 5802 5805 5807 5809 5811 5813 5814 5815 5817 5818 5819 5820 5820 5821 5821 5822 5822 5823 5823 5824 5824 5825 5825 5825 5826 5826 5826 5826 5827 5827 5827 5827 5826 5826 5826 5826 5825 5825 5825
5767 5770 5774 5777 5780 5783 5786 5789 5792 5795 5797 5799 5802 5804 5806 5808 5809 5811 5812 5813 5814 5815 5816 5817 5817 5818 5818 5819 5819 5819 5820 5820 5821 5821 5821 5821 5821 5822 5822 5822 5822 5821 5821 5821 5821 5820 5820 5820 5819
5760 5764 5767 5770 5774 5777 5780 5784 5786 5789 5791 5794 5796 5798 5801 5802 5804 5806 5808 5809 5809 5810 5811 5812 5813 5813 5814 5814 5814 5815 5815 5815 5815 5816 5816 5816 5816 5816 5816 5816 5816 5816 5816 5816 5815 5815 5814 5814 5813
5754 5757 5760 5764 5768 5771 5774 5777 5780 5783 5785 5788 5790 5792 5795 5797 5799 5801 5802 5803 5804 5805 5806 5807 5808 5809 5809 5809 5810 5810 5810 5810 5810 5811 5811 5811 5811 5811 5811 5810 5810 5810 5809 5809 5809 5808 5808 5807 5806
5747 5750 5753 5757 5761 5764 5767 5770 5774 5777 5779 5782 5784 5786 5788 5791 5793 5795 5796 5797 5799 5800 5801 5802 5802 5803 5804 5804 5804 5804 5804 5804 5805 5805 5805 5805 5805 5805 5804 5804 5803 5803 5802 5802 5802 5801 5800 5800 5799
5740 5743 5746 5750 5753 5756 5760 5763 5767 5770 5772 5775 5777 5780 5782 5784 5786 5788 5790 5791 5792 5793 5794 5795 5796 5797 5797 5798 5798 5798 5798 5798 5798 5798 5798 5798 5798 5798 5797 5797 5796 5796 5795 5794 5794 5793 5792 5792 5791
5733 5736 5739 5743 5746 5749 5754 5756 5759 5762 5765 5768 5770 5773 5775 5777 5780 5781 5783 5784 5786 5787 5788 5789 5789 5790 5791 5791 5791 5791 5792 5792 5792 5791 5791 5790 5790 5790 5790 5789 5789 5788 5787 5786 5785 5784 5783 5783 5782
5727 5730 5732 5736 5739 5742 5745 5748 5752 5754 5757 5760 5763 5765 5768 5770 5772 5774 5776 5777 5779 5780 5781 5782 5782 5783 5783 5784 5784 5784 5784 5784 5784 5783 5783 5782 5782 5782 5781 5781 5780 5779 5778 5777 5776 5775 5774 5773 5772
5722 5724 5727 5729 5732 5734 5737 5741 5744 5747 5749 5752 5755 5758 5760 5762 5764 5766 5768 5770 5771 5773 5774 5775 5775 5776 5776 5776 5776 5776 5776 5776 5776 5775 5775 5774 5774 5773 5772 5772 5771 5770 5769 5768 5767 5765 5764 5763 5761
5717 5719 5721 5724 5725 5728 5731 5734 5737 5739 5742 5745 5747 5750 5753 5755 5757 5759 5761 5762 5764 5765 5766 5767 5768 5768 5769 5769 5769 5769 5768 5768 5767 5766 5766 5765 5764 5763 5763 5762 5761 5760 5759 5757 5756 5755 5753 5752 5750
5713 5714 5716 5718 5719 5722 5724 5727 5729 5732 5735 5737 5740 5742 5745 5747 5749 5751 5753 5755 5756 5757 5758 5759 5760 5761 5761 5761 5761 5760 5760 5759 5758 5757 5756 5755 5755 5754 5752 5751 5750 5749 5748 5746 5745 5743 5742 5740 5738
5709 5710 5712 5714 5715 5716 5718 5720 5723 5725 5727 5730 5732 5735 5737 5739 5742 5744 5746 5747 5748 5750 5750 5751 5752 5752 5752 5752 5752 5751 5751 5750 5749 5748 5747 5746 5745 5743 5742 5741 5739 5738 5737 5735 5733 5731 5729 5728 5726
5706 5707 5708 5709 5710 5711 5713 5714 5717 5719 5721 5723 5725 5727 5730 5732 5734 5736 5738 5739 5741 5742 5742 5743 5743 5743 5743 5743 5743 5742 5742 5741 5740 5738 5737 5735 5734 5732 5731 5730 5728 5726 5725 5723 5720 5718 5716 5714 5713
5703 5703 5704 5705 5706 5707 5708 5709 5712 5713 5715 5718 5719 5721 5723 5725 5727 5728 5730 5731 5733 5734 5734 5735 5735 5735 5735 5734 5734 5733 5733 5732 5730 5728 5727 5725 5723 5721 5720 5718 5716 5714 5712 5710 5708 5705 5703 5701 5698
5701 5702 5702 5702 5703 5704 5705 5705 5706 5709 5711 5712 5714 5715 5717 5719 5720 5722 5723 5724 5725 5726 5726 5727 5727 5726 5726 5725 5725 5724 5723 5722 5720 5718 5716 5714 5712 5710 5708 5706 5704 5702 5699 5697 5695 5692 5689 5687 5684
5700 5701 5701 5700 5700 5701 5702 5702 5704 5705 5706 5708 5709 5711 5712 5713 5714 5715 5716 5717 5718 5718 5718 5718 5718 5717 5716 5716 5715 5714 5713 5712 5710 5708 5706 5703 5701 5699 5697 5694 5692 5689 5687 5684 5681 5679 5676 5673 5670
5699 5699 5700 5699 5698 5699 5699 5699 5702 5702 5703 5703 5705 5706 5707 5707 5708 5708 5709 5709 5710 5710 5710 5710 5709 5708 5707 5706 5705 5704 5703 5701 5700 5697 5695 5692 5690 5688 5685 5682 5680 5677 5674 5671 5668 5665 5662 5659 5656
5697 5697 5697 5697 5696 5697 5697 5698 5699 5698 5699 5699 5700 5701 5702 5702 5702 5702 5702 5702 5702 5702 5702 5701 5701 5699 5698 5697 5696 5694 5693 5691 5689 5686 5684 5681 5679 5676 5673 5670 5667 5664 5661 5658 5655 5652 5649 5645 5642
5697 5696 5696 5695 5694 5694 5695 5695 5696 5695 5695 5695 5695 5696 5696 5696 5696 5696 5695 5695 5695 5694 5693 5693 5692 5691 5689 5687 5686 5684 5682 5680 5678 5676 5673 5670 5667 5664 5661 5658 5655 5652 5649 5645 5642 5638 5634 5631 5627
5695 5695 5694 5693 5693 5692 5692 5695 5692 5691 5691 5691 5690 5690 5690 5690 5689 5689 5688 5688 5687 5686 5685 5684 5682 5681 5679 5678 5676 5674 5671 5669 5667 5664 5662 5659 5655 5652 5649 5646 5643 5639 5636 5632 5629 5625 5621 5616 5612
5693 5693 5692 5692 5691 5690 5689 5693 5689 5688 5687 5686 5686 5685 5685 5684 5683 5682 5682 5681 5680 5678 5677 5675 5673 5671 5670 5668 5666 5663 5661 5659 5656 5653 5650 5647 5644 5641 5638 5634 5630 5627 5623 5619 5615 5611 5607 5602 5598